Regional Weather Roundup
Issued by NWS Kansas City/Pleasant Hill, MO

Home | Current Version | Previous Version | Graphics & Text | Print | Product List | Glossary Off
Versions: 1 2 3 4 5 6 7 8 9 10 11 12 13 14 15 16 17 18 19 20 21 22 23 24 25 26 27 28 29 30 31 32 33 34 35 36 37 38 39 40 41 42 43 44 45 46 47 48 49 50

235
ASUS43 KEAX 310710
RWREAX

WEATHER ROUNDUP FOR EASTERN KANSAS AND NORTHWEST MISSOURI
NATIONAL WEATHER SERVICE KANSAS CITY/PLEASANT HILL MO
200 AM CDT TUE MAY 31 2016

KSZ040-057-103>105-MOZ028-029-037-043-310800-
...KANSAS CITY METROPOLITAN AREA...

CITY           SKY/WX    TMP DP  RH WIND       PRES   REMARKS
K.C. INTL      CLEAR     61  58  90 S7        29.95F
K.C. DOWNTOWN  CLEAR     65  59  81 SW7       29.94F
LEES SUMMIT    CLOUDY    64  60  87 S8        29.96F
OLATHE - IXD   CLEAR     62  61  96 S5        29.96F
OLATHE - OJC   CLEAR     61  59  93 SW5       29.95F
LAWRENCE       PTCLDY    62  61  96 SE5       29.94F

$$

MOZ001>008-011>017-020>025-030>033-038>040-044>046-053-054-310800-
...NORTHERN AND CENTRAL MISSOURI...

CITY           SKY/WX    TMP DP  RH WIND       PRES   REMARKS
ST. JOSEPH     CLOUDY    64  61  90 S6        29.94S
MOSBY          SUNNY     61  61 100 CALM      29.95F
WARRENSBURG    CLOUDY    61  59  94 CALM      29.96F
WHITEMAN AFB   NOT AVBL
CLINTON        CLOUDY    63  63 100 CALM      29.97S
SEDALIA        CLOUDY    64  61  90 CALM      29.98F
WARSAW         NOT AVBL
CHILLICOTHE      N/A     61  60  97 CALM      29.97F
KIRKSVILLE     CLOUDY    62  60  93 CALM      29.98F

$$

MOZ041-047>049-056>058-063>065-088>090-097-310800-
...EASTERN AND SOUTHERN MISSOURI...

CITY           SKY/WX    TMP DP  RH WIND       PRES   REMARKS
ST. LOUIS INTL CLOUDY    72  61  68 CALM      29.98S
SPIRIT OF STL  MOCLDY    66  65  96 CALM      29.97R
COLUMBIA       CLOUDY    65  62  90 NE3       29.98F
JEFFERSON CITY CLOUDY    66  62  87 CALM      29.97F
ROLLA          CLOUDY    64  60  87 SE3       29.97S
SPRINGFIELD    CLOUDY    66  60  81 S8        29.95F
JOPLIN         MOCLDY    66  64  93 SE7       29.93F
WEST PLAINS    CLOUDY    65  61  87 CALM      29.99F

$$

IAZ060-094-KSZ022-034>040-054-083-096-NEZ052-066-093-310800-
...KANSAS...SOUTHEAST NEBRASKA AND IOWA...

CITY           SKY/WX    TMP DP  RH WIND       PRES   REMARKS
TOPEKA         CLOUDY    65  61  87 CALM      29.94F
MANHATTAN      CLOUDY    66  61  84 S7        29.93F
EMPORIA        CLOUDY    61  60  97 SW3       29.95F
CHANUTE        MOCLDY    64  62  93 SE5       29.93F
WICHITA        CLOUDY    66  62  87 S6        29.94R
OMAHA          CLOUDY    70  62  76 S13       29.86F
LINCOLN        CLOUDY    72  61  68 SW15G23   29.91R
FALLS CITY     LGT RAIN  67  60  78 S8        29.91F
LAMONI         PTCLDY    62  58  86 S7        29.95F
DES MOINES     CLOUDY    69  59  70 SE9       29.92F

$$





USA.gov is the U.S. government's official web portal to all federal, state and local government web resources and services.